This demonstration page uses our WeatherBlox Daily Observations layout. Learn more.

Left ArrowRight Arrow

36.17497, -115.13722

Hourly Observations for March 27, 2019

Temp ( °F °C ) Dew Point ( °F °C ) Humidity (%) Winds ( mph kmh ) Pressure ( in mb ) Visibility ( mi km ) Precip ( " mm )
12:53 am 00:53 Clear 62 16.7 18 -7.8 18 18 SSE 5 7 29.92 1013 10 16 0.00 0.00
1:53 am 01:53 Clear 57 13.9 22 -5.6 26 26 Calm 29.91 1013 10 16 0.00 0.00
2:53 am 02:53 Clear 57 13.9 24 -4.4 28 28 Calm 29.90 1013 10 16 0.00 0.00
3:53 am 03:53 Clear 55 12.8 24 -4.4 30 30 Calm 29.91 1013 10 16 0.00 0.00
4:53 am 04:53 Clear 53 11.7 26 -3.3 35 35 NW 3 6 29.91 1013 10 16 0.00 0.00
5:53 am 05:53 Clear 54 12.2 26 -3.3 34 34 Calm 29.92 1013 10 16 0.00 0.00
6:53 am 06:53 Sunny 54 12.2 28 -2.2 37 37 NE 3 6 29.93 1014 9 14 0.00 0.00
7:53 am 07:53 Sunny 58 14.4 27 -2.8 31 31 WNW 5 7 29.94 1014 10 16 0.00 0.00
8:53 am 08:53 Sunny 61 16.1 26 -3.3 26 26 NE 3 6 29.96 1015 10 16 0.00 0.00
9:53 am 09:53 Sunny 66 18.9 25 -3.9 21 21 SE 7 11 29.96 1015 10 16 0.00 0.00
10:53 am 10:53 Sunny 71 21.7 20 -6.7 14 14 SSE 16 26 29.96 1015 10 16 0.00 0.00
11:53 am 11:53 Sunny 73 22.8 15 -9.4 11 11 S 14 22 29.95 1014 10 16 0.00 0.00
12:53 pm 12:53 Sunny 74 23.3 14 -10 10 10 SSE 15 24 29.94 1014 10 16 0.00 0.00
1:53 pm 13:53 Sunny 77 25 12 -11.1 8 8 SSW 17 28 29.93 1013 10 16 0.00 0.00
2:53 pm 14:53 Sunny 77 25 11 -11.7 8 8 SSW 15 24 29.91 1013 10 16 0.00 0.00
3:53 pm 15:53 Sunny 78 25.6 11 -11.7 8 8 SSW 18 30 29.90 1012 10 16 0.00 0.00
4:53 pm 16:53 Sunny 77 25 11 -11.7 8 8 SSW 13 20 29.90 1013 10 16 0.00 0.00
5:53 pm 17:53 Sunny 75 23.9 12 -11.1 9 9 SSW 16 26 29.90 1013 10 16 0.00 0.00
6:53 pm 18:53 Sunny 72 22.2 13 -10.6 10 10 S 13 20 29.92 1013 10 16 0.00 0.00
7:53 pm 19:53 Clear 70 21.1 19 -7.2 14 14 SSW 17 28 29.91 1013 10 16 0.00 0.00
8:53 pm 20:53 Clear 69 20.6 22 -5.6 17 17 S 14 22 29.93 1014 10 16 0.00 0.00
9:53 pm 21:53 Clear 67 19.4 26 -3.3 21 21 WSW 6 9 29.95 1014 10 16 0.00 0.00
10:53 pm 22:53 Clear 66 18.9 33 0.6 29 29 S 9 15 29.97 1015 10 16 0.00 0.00
11:53 pm 23:53 Clear 66 18.9 38 3.3 36 36 S 8 13 29.97 1015 10 16 0.00 0.00

Powered by AerisWeather